Home   Weather   Mulhouse   Past weeks

Flag for France Past Weather in Mulhouse, Alsace, France — Yesterday and Last 2 Weeks

Now
19 °F

Passing clouds.


Feels Like: 11 °F
Forecast: 13 / 29 °F
Wind: 6 mph from North

Location: Bale-Mulhouse

Current Time: Jan 19, 2017 at 8:03:34 am

Latest Report: Jan 19, 2017 at 7:00 am


Visibility: 4 mi

Pressure: 30.45 "Hg

Humidity: 93%

Dew Point: 18 °F

Location of MulhouseLocation

Past Weather in Mulhouse — Graph

°F

Mulhouse Temperature Yesterday

Maximum temperature yesterday: 32 °F (at 3:00 pm)
Minimum temperature yesterday: 18 °F (at 4:30 am)
Average temperature yesterday: 24 °F

High & Low Weather Summary for the Past Weeks

 TemperatureHumidityPressure
High50 °F (Jan 12, 11:00 pm)100% (Jan 9, 10:00 am)30.69 "Hg (Jan 9, 10:00 am)
Low9 °F (Jan 7, 2:30 am)51% (Jan 18, 1:00 pm)29.45 "Hg (Jan 12, 11:30 pm)
Average30 °F83%30.21 "Hg
* Reported Jan 4 6:00 am — Jan 19 6:30 am, Mulhouse, Weather by CustomWeather, © 2017

Note: Actual official high and low records may vary slightly from our data, if they occured in-between our weather recording intervals... More about our weather records

Advertising

Mulhouse Weather History for the Previous 24 Hours

Scroll right to see more
 ConditionsComfort  
Time TempWeatherWind HumidityBarometerVisibility
6:30 am
Thu, Jan 19
19 °FPassing clouds.7 mph93%30.45 "Hg4 mi
6:00 am19 °FPassing clouds.7 mph93%30.45 "Hg4 mi
5:30 am19 °FPassing clouds.7 mph93%30.45 "Hg4 mi
5:00 am19 °FPassing clouds.7 mph93%30.45 "Hg4 mi
4:30 am19 °FPassing clouds.8 mph86%30.45 "Hg4 mi
4:00 am19 °FOvercast.8 mph86%30.45 "Hg4 mi
3:30 am19 °FOvercast.7 mph93%30.45 "Hg5 mi
3:00 am19 °FOvercast.5 mph93%30.45 "Hg5 mi
2:30 am21 °FOvercast.3 mph86%30.45 "Hg6 mi
2:00 am21 °FPassing clouds.5 mph86%30.42 "HgN/A
1:30 am19 °FOvercast.6 mph86%30.42 "HgN/A
1:00 am21 °FOvercast.6 mph86%30.42 "HgN/A
12:30 am23 °FOvercast.6 mph80%30.42 "HgN/A
12:00 am23 °FPassing clouds.7 mph80%30.42 "HgN/A
11:30 pm
Wed, Jan 18
23 °FPassing clouds.6 mph80%30.42 "HgN/A
11:00 pm23 °FPassing clouds.8 mph80%30.45 "HgN/A
10:30 pm23 °FPassing clouds.6 mph80%30.45 "HgN/A
10:00 pm23 °FPassing clouds.5 mph80%30.45 "HgN/A
9:30 pm23 °FPassing clouds.7 mph80%30.42 "HgN/A
9:00 pm25 °FPassing clouds.5 mph74%30.45 "HgN/A
8:30 pm25 °FPassing clouds.3 mph69%30.45 "HgN/A
8:00 pm25 °FPassing clouds.6 mph74%30.45 "HgN/A
7:30 pm25 °FPassing clouds.6 mph69%30.45 "HgN/A
7:00 pm25 °FPassing clouds.5 mph74%30.45 "HgN/A
6:30 pm25 °FPassing clouds.5 mph69%30.45 "HgN/A
6:00 pm27 °FPassing clouds.2 mph69%30.45 "HgN/A
5:30 pm27 °FPassing clouds.2 mph64%30.42 "HgN/A
5:00 pm27 °FPassing clouds.3 mph64%30.42 "HgN/A
4:30 pm28 °FPassing clouds.3 mph59%30.42 "HgN/A
4:00 pm32 °FPassing clouds.3 mph51%30.42 "HgN/A
3:30 pm32 °FPassing clouds.3 mph51%30.42 "HgN/A
3:00 pm32 °FPassing clouds.3 mph51%30.42 "HgN/A
2:30 pm30 °FPassing clouds.3 mph55%30.42 "HgN/A
2:00 pm30 °FScattered clouds.5 mph55%30.42 "HgN/A
1:30 pm30 °FScattered clouds.2 mph55%30.42 "HgN/A
1:00 pm30 °FScattered clouds.5 mph51%30.42 "HgN/A
12:30 pm30 °FScattered clouds.5 mph55%30.45 "HgN/A
12:00 pm30 °FScattered clouds.3 mph55%30.45 "HgN/A
11:30 am28 °FScattered clouds.3 mph64%30.45 "HgN/A
11:00 am27 °FScattered clouds.5 mph69%30.45 "HgN/A
10:30 am25 °FScattered clouds.5 mph74%30.45 "HgN/A
10:00 am21 °FScattered clouds.1 mph80%30.45 "HgN/A
9:30 am19 °FPartly sunny.1 mph79%30.45 "HgN/A
9:00 am19 °FScattered clouds.5 mph79%30.42 "HgN/A
8:30 am18 °FScattered clouds.2 mph86%30.42 "HgN/A
8:00 am18 °FPassing clouds.2 mph86%30.42 "HgN/A
Weather by CustomWeather, © 2017

See weather overviewHow to use our weather pages